Stations météo

Publicité
Gourdon, France (7535): Température de l'air & dewpoint: 15.07.2019 17:00:00 - 21.07.2019 17:00:00 (CEST)Gourdon, France (7535): Température de l'air 5cm: 15.07.2019 17:00:00 - 21.07.2019 17:00:00 (CEST)Gourdon, France (7535): Température de l'air -20cm & Température de l'air -100cm: 15.07.2019 17:00:00 - 21.07.2019 17:00:00 (CEST)Gourdon, France (7535): Vitesse du vent & gusts: 15.07.2019 17:00:00 - 21.07.2019 17:00:00 (CEST)Gourdon, France (7535): Direction du vent: 15.07.2019 17:00:00 - 21.07.2019 17:00:00 (CEST)Gourdon, France (7535): reduced air pressure: 15.07.2019 17:00:00 - 21.07.2019 17:00:00 (CEST)Gourdon, France (7535): visibility: 15.07.2019 17:00:00 - 21.07.2019 17:00:00 (CEST)Gourdon, France (7535): Ensoleillement: 15.07.2019 17:00:00 - 21.07.2019 17:00:00 (CEST)Gourdon, France (7535): Quantités de précipitations: 15.07.2019 17:00:00 - 21.07.2019 17:00:00 (CEST)
Date & Time tt [°C] td [°C] tt 5cm [°C] tt -20cm [°C] tt -100cm [°C] ff [km/h] ff [knt] fx [km/h] fx [knt] dd ppp [hPa] vv [km] sd [min] rr [mm]
21.07.2019 17:00:00 - - - - - - - - - - - - - -
21.07.2019 16:00:00 30,9 18,6 39,0 23,6 21,2 6 3 17 9 NNW 1020,0 20 55 0,0
21.07.2019 15:00:00 30,3 18,1 37,6 23,3 21,1 6 3 19 10 N 1020,6 20 52 0,0
21.07.2019 14:00:00 29,0 17,5 36,2 23,1 21,2 5 3 16 8 ESE 1021,2 20 46 0,0
21.07.2019 13:00:00 27,7 17,8 36,8 22,9 21,2 3 2 16 9 W 1021,3 20 57 0,0
21.07.2019 12:00:00 26,2 17,8 34,9 22,8 21,2 5 3 13 7 NNE 1021,5 20 58 0,0
21.07.2019 11:00:00 23,3 18,0 27,4 22,8 21,1 5 3 13 7 N 1021,8 20 33 0,0
21.07.2019 10:00:00 21,1 17,7 22,8 22,9 21,2 2 1 10 5 WNW 1022,0 20 1 0,0
21.07.2019 09:00:00 19,6 17,2 18,7 23,0 21,2 4 2 10 5 NW 1021,8 20 26 0,0
21.07.2019 08:00:00 18,3 17,1 17,5 23,1 21,1 3 2 10 5 N 1021,5 20 11 0,2
21.07.2019 07:00:00 17,6 16,6 15,9 23,3 21,1 3 1 7 4 W 1021,4 20 8 0,0
21.07.2019 06:00:00 17,7 16,6 15,8 23,4 21,2 0 0 5 3 N 1020,8 20 0 0,0
21.07.2019 05:00:00 18,2 16,7 16,5 23,5 21,1 4 2 8 4 SSE 1020,7 20 0 0,0
21.07.2019 04:00:00 19,5 16,9 18,6 23,7 21,1 5 3 11 6 N 1020,7 20 0 0,0
21.07.2019 03:00:00 20,0 16,8 18,8 23,8 21,1 5 3 16 8 NNW 1021,1 20 0 0,0
21.07.2019 02:00:00 20,7 17,1 19,5 23,9 21,1 6 3 17 9 NNW 1021,0 20 0 0,0
21.07.2019 01:00:00 21,2 17,0 18,7 24,0 21,1 8 5 18 10 NW 1020,2 20 0 0,0
21.07.2019 00:00:00 21,3 18,1 18,8 24,1 21,1 0 0 6 3 N 1019,7 20 0 0,0
20.07.2019 23:00:00 23,6 17,1 20,5 24,2 21,2 2 1 8 4 NNW 1018,9 20 0 0,0
20.07.2019 22:00:00 24,8 18,0 23,2 24,1 21,1 5 3 19 10 NW 1017,9 20 0 0,0
20.07.2019 21:00:00 26,6 19,0 26,3 24,1 21,2 3 2 13 7 W 1016,9 20 0 0,0
20.07.2019 20:00:00 28,0 19,5 29,5 24,0 21,1 3 2 15 8 WSW 1016,2 20 25 0,0
20.07.2019 19:00:00 27,7 19,5 29,6 23,9 21,1 10 5 16 9 S 1015,9 20 20 0,0
20.07.2019 18:00:00 27,4 19,5 29,6 23,7 21,1 9 5 19 10 S 1016,0 20 12 0,0
20.07.2019 17:00:00 26,7 19,6 29,1 23,6 21,1 11 6 21 11 S 1016,3 20 4 0,0
20.07.2019 16:00:00 26,3 19,4 29,1 23,5 21,2 11 6 25 13 SSW 1016,5 20 0 0,0
20.07.2019 15:00:00 25,8 19,7 27,6 23,4 21,1 13 7 24 13 SSW 1016,4 20 0 0,0
20.07.2019 14:00:00 25,8 19,7 29,4 23,2 21,1 10 5 27 15 SSW 1016,2 20 25 0,0
20.07.2019 13:00:00 25,0 19,4 28,2 23,1 21,1 9 5 21 12 SSW 1016,1 20 2 0,0
20.07.2019 12:00:00 24,3 19,4 28,9 23,1 21,1 10 5 22 12 S 1016,2 20 30 0,0
20.07.2019 11:00:00 22,8 17,7 23,9 23,1 21,1 5 3 11 6 SSE 1016,1 20 32 0,0
20.07.2019 10:00:00 20,2 17,6 16,1 23,3 21,1 7 4 38 21 W 1015,6 20 27 0,2
20.07.2019 09:00:00 16,9 15,2 15,9 23,4 21,1 20 11 35 19 SE 1013,8 11 0 1,8
20.07.2019 08:00:00 18,4 13,7 16,2 23,5 21,1 5 3 12 6 N 1015,0 20 0 0,0
20.07.2019 07:00:00 16,6 13,1 15,9 23,7 21,1 7 4 13 7 SE 1014,4 20 0 0,0
20.07.2019 06:00:00 17,8 13,1 15,1 23,9 21,1 6 3 14 8 SSE 1013,0 20 0 0,0
20.07.2019 05:00:00 17,9 12,8 14,1 24,1 21,1 5 3 10 5 E 1012,7 20 0 0,0
20.07.2019 04:00:00 19,4 13,1 14,8 24,3 21,1 0 0 12 6 N 1013,0 20 0 0,0
20.07.2019 03:00:00 18,5 13,1 15,0 24,4 21,0 10 6 13 7 ESE 1013,0 20 0 0,0
20.07.2019 02:00:00 18,4 13,3 15,6 24,6 21,1 9 5 14 7 ESE 1013,0 20 0 0,0
20.07.2019 01:00:00 18,3 13,4 16,0 24,8 21,1 10 6 13 7 ESE 1013,2 20 0 0,0
20.07.2019 00:00:00 19,3 13,9 16,8 24,9 21,1 6 4 11 6 SE 1013,3 20 0 0,0
19.07.2019 23:00:00 20,8 14,9 18,8 24,9 21,1 8 4 10 5 SE 1013,3 20 0 0,0
19.07.2019 22:00:00 24,3 14,7 20,0 24,9 21,0 5 3 6 3 SSE 1012,5 20 0 0,0
19.07.2019 21:00:00 28,2 12,9 26,0 24,8 21,1 4 2 9 5 N 1012,1 20 52 0,0
19.07.2019 20:00:00 30,4 13,2 31,2 24,6 21,1 5 3 10 6 N 1011,9 20 60 0,0
19.07.2019 19:00:00 31,3 12,1 32,7 24,3 21,1 4 2 13 7 W 1012,3 20 60 0,0
19.07.2019 18:00:00 30,6 12,9 39,1 24,0 21,1 6 3 17 9 NW 1013,1 20 60 0,0
19.07.2019 17:00:00 30,4 13,7 39,5 23,6 21,1 5 3 23 13 WNW 1013,7 20 60 0,0
19.07.2019 16:00:00 29,7 13,5 39,4 23,2 21,1 6 3 18 10 W 1014,5 20 60 0,0
19.07.2019 15:00:00 28,1 12,8 38,1 22,9 21,1 8 4 19 11 SW 1015,3 20 60 0,0
19.07.2019 14:00:00 27,1 13,4 36,1 22,6 21,1 9 5 19 10 W 1016,1 20 60 0,0
19.07.2019 13:00:00 25,6 13,4 35,3 22,5 21,1 6 3 14 8 NNW 1016,8 20 60 0,0
19.07.2019 12:00:00 24,8 13,7 33,6 22,4 21,1 6 3 14 8 W 1017,3 20 60 0,0
19.07.2019 11:00:00 22,6 14,2 30,9 22,4 21,1 5 3 11 6 NNE 1017,8 20 60 0,0
19.07.2019 10:00:00 20,0 13,9 28,4 22,5 21,1 6 3 11 6 N 1018,4 20 60 0,0
19.07.2019 09:00:00 18,2 14,1 21,3 22,7 21,1 3 2 8 4 N 1018,6 20 60 0,0
19.07.2019 08:00:00 14,8 13,2 12,3 22,8 21,1 0 0 6 4 N 1018,9 20 60 0,0
19.07.2019 07:00:00 12,6 12,0 10,9 23,0 21,1 6 3 9 5 SE 1018,9 18 9 0,0
19.07.2019 06:00:00 12,5 11,7 10,8 23,2 21,1 7 4 9 5 SE 1018,8 20 0 0,0
19.07.2019 05:00:00 12,6 11,7 10,7 23,4 21,1 5 3 8 4 SE 1019,0 20 0 0,0
19.07.2019 04:00:00 13,2 11,8 11,6 23,6 21,1 4 2 6 4 SSE 1019,1 20 0 0,0
19.07.2019 03:00:00 14,0 12,0 11,7 23,8 21,1 0 0 4 2 N 1019,0 20 0 0,0
19.07.2019 02:00:00 14,7 12,0 12,3 24,0 21,1 0 0 10 6 N 1018,9 20 0 0,0
19.07.2019 01:00:00 16,5 12,5 13,1 24,1 21,1 4 2 8 4 WNW 1018,6 20 0 0,0
19.07.2019 00:00:00 16,6 12,3 - - - 4 2 8 4 SE 1018,3 20 - 0,0
18.07.2019 23:00:00 17,9 12,8 15,8 24,4 21,2 5 3 7 4 SE 1017,9 20 0 0,0
18.07.2019 22:00:00 21,3 11,6 16,8 24,4 21,1 3 1 8 5 WNW 1017,3 20 0 0,0
18.07.2019 21:00:00 23,2 11,9 22,4 24,3 21,1 5 3 19 10 NW 1016,8 20 52 0,0
18.07.2019 20:00:00 25,1 11,6 26,9 24,2 21,1 8 5 20 11 NW 1016,3 20 58 0,0
18.07.2019 19:00:00 25,1 11,6 27,2 24,0 21,1 8 4 22 12 WNW 1016,2 20 39 0,0
18.07.2019 18:00:00 25,1 11,6 28,9 23,8 21,2 8 4 22 12 NW 1016,4 20 51 0,0
18.07.2019 17:00:00 25,7 11,8 32,8 23,5 21,1 11 6 23 12 NNW 1016,5 20 58 0,0
18.07.2019 16:00:00 24,9 11,5 31,5 23,4 21,1 11 6 24 13 WNW 1017,1 20 46 0,0
18.07.2019 15:00:00 24,0 11,3 28,1 23,2 21,1 6 4 20 11 NW 1017,3 20 28 0,0
18.07.2019 14:00:00 22,7 12,0 26,7 23,1 21,1 4 2 20 11 W 1017,9 20 22 0,0
18.07.2019 13:00:00 21,3 12,7 25,6 23,1 21,1 10 5 21 11 NNW 1018,2 20 15 0,0
18.07.2019 12:00:00 20,1 13,1 23,9 23,0 21,1 9 5 21 12 NNW 1018,5 20 11 0,0
18.07.2019 11:00:00 19,5 12,7 25,2 23,0 21,1 8 4 14 8 NW 1018,4 20 28 0,0
18.07.2019 10:00:00 18,4 14,1 21,1 23,1 21,1 5 3 11 6 NW 1018,7 20 2 0,0
18.07.2019 09:00:00 17,1 14,2 17,4 23,3 21,1 3 2 8 4 WSW 1018,5 20 13 0,0
18.07.2019 08:00:00 15,2 14,1 14,3 23,4 21,1 4 2 11 6 S 1018,5 17 0 0,0
18.07.2019 07:00:00 14,4 13,8 9,1 23,6 21,1 3 2 9 5 WSW 1018,4 16 0 0,0
18.07.2019 06:00:00 14,6 13,0 10,3 23,8 21,1 3 1 11 6 WSW 1017,8 20 0 0,0
18.07.2019 05:00:00 16,1 13,6 15,6 24,0 21,0 5 3 17 9 WNW 1017,6 20 0 0,0
18.07.2019 04:00:00 16,4 13,9 14,0 24,2 21,1 6 3 13 7 NW 1017,4 20 0 0,0
18.07.2019 03:00:00 16,4 12,9 13,9 24,4 21,0 5 3 22 12 WNW 1017,6 20 0 0,0
18.07.2019 02:00:00 17,8 11,4 15,9 24,6 21,0 10 5 20 11 NNW 1017,4 20 0 0,0
18.07.2019 01:00:00 18,9 9,7 15,9 24,8 21,0 8 4 20 11 WNW 1016,9 20 0 0,0
18.07.2019 00:00:00 20,3 9,2 18,0 24,9 21,1 9 5 29 16 WNW 1016,4 20 0 0,0
17.07.2019 23:00:00 21,8 10,0 19,6 25,0 21,0 9 5 24 13 WNW 1016,0 20 0 0,0
17.07.2019 22:00:00 23,4 12,4 21,2 25,1 21,1 10 5 23 13 WNW 1014,9 20 0 0,0
17.07.2019 21:00:00 25,8 13,3 24,8 25,0 21,1 13 7 28 15 WNW 1013,6 20 54 0,0
17.07.2019 20:00:00 28,2 11,7 30,2 24,9 21,1 12 6 25 13 WNW 1013,0 20 57 0,0
17.07.2019 19:00:00 28,8 10,5 31,1 24,6 21,0 13 7 26 14 WNW 1012,8 20 48 0,0
17.07.2019 18:00:00 30,1 10,6 37,1 24,3 21,0 9 5 28 15 WNW 1013,0 20 54 0,0
17.07.2019 17:00:00 30,8 11,2 38,7 23,9 21,1 10 5 26 14 NW 1013,0 20 58 0,0
17.07.2019 16:00:00 29,8 11,8 36,2 23,5 21,0 11 6 32 17 WNW 1013,4 20 39 0,0
17.07.2019 15:00:00 29,9 8,9 43,4 23,2 21,1 10 5 26 14 WNW 1013,7 20 60 0,0
17.07.2019 14:00:00 29,2 10,8 40,9 22,9 21,1 8 4 22 12 W 1014,0 20 60 0,0
17.07.2019 13:00:00 28,2 11,3 39,1 22,7 21,1 10 5 21 12 NNW 1014,5 20 56 0,0
17.07.2019 12:00:00 26,7 12,7 39,2 22,6 21,1 9 5 18 10 NNW 1014,7 20 60 0,0
17.07.2019 11:00:00 24,3 12,6 35,0 22,6 21,1 5 3 11 6 NW 1015,0 20 60 0,0
17.07.2019 10:00:00 21,8 12,4 26,6 22,7 21,0 3 2 9 5 W 1015,4 20 51 0,0
17.07.2019 09:00:00 20,5 12,7 19,6 22,9 21,0 3 1 5 3 S 1015,4 20 60 0,0
17.07.2019 08:00:00 15,3 12,4 12,4 23,0 21,1 4 2 9 5 SE 1015,8 20 19 0,0
17.07.2019 07:00:00 13,2 11,3 11,1 23,2 21,0 5 3 9 5 S 1015,8 20 9 0,0
17.07.2019 06:00:00 13,0 11,1 10,7 23,4 21,0 6 4 10 6 SSE 1015,7 20 0 0,0
17.07.2019 05:00:00 13,5 11,0 10,9 23,7 21,0 6 3 9 5 SSE 1015,6 20 0 0,0
17.07.2019 04:00:00 14,2 11,2 11,0 23,9 21,0 5 3 9 5 SSE 1015,5 20 0 0,0
17.07.2019 03:00:00 14,5 11,1 11,6 24,1 21,0 7 4 9 5 SE 1015,7 20 0 0,0
17.07.2019 02:00:00 15,0 11,2 11,7 24,3 21,0 6 4 10 5 SSE 1016,0 20 0 0,0
17.07.2019 01:00:00 16,2 11,4 12,2 24,5 21,0 5 3 8 5 SSE 1016,1 20 0 0,0
17.07.2019 00:00:00 17,7 11,3 13,1 24,7 21,0 6 3 9 5 SSE 1016,0 20 0 0,0
16.07.2019 23:00:00 19,6 11,9 14,2 24,8 21,0 5 3 7 4 SSE 1016,0 20 0 0,0
16.07.2019 22:00:00 23,0 11,4 15,7 24,9 21,0 3 1 11 6 WSW 1015,3 9 0 0,0
16.07.2019 21:00:00 26,3 10,4 22,3 24,8 21,0 5 3 14 8 WNW 1014,6 20 52 0,0
16.07.2019 20:00:00 29,3 9,4 30,3 24,7 21,0 4 2 13 7 NW 1014,2 20 60 0,0
16.07.2019 19:00:00 29,7 7,6 32,6 24,4 21,0 7 4 19 10 WNW 1014,2 20 60 0,0
16.07.2019 18:00:00 29,8 7,7 41,8 24,0 21,1 8 4 20 11 WNW 1014,5 20 60 0,0
16.07.2019 17:00:00 29,8 7,7 42,8 23,6 21,0 8 5 19 10 W 1014,8 20 60 0,0
16.07.2019 16:00:00 29,2 7,7 40,3 23,2 21,1 8 4 18 10 W 1015,3 20 54 0,0
16.07.2019 15:00:00 27,5 10,7 37,9 22,9 21,1 5 3 16 9 NNW 1015,6 20 46 0,0
16.07.2019 14:00:00 27,5 9,8 38,8 22,5 21,0 4 2 21 11 N 1016,0 20 45 0,0
16.07.2019 13:00:00 26,7 10,4 34,9 22,4 21,1 7 4 18 10 ENE 1016,3 20 43 0,0
16.07.2019 12:00:00 25,6 9,0 34,7 22,3 21,1 9 5 18 10 NNW 1016,6 20 53 0,0
16.07.2019 11:00:00 23,5 11,2 32,8 22,3 21,0 4 2 10 5 WNW 1016,9 20 58 0,0
16.07.2019 10:00:00 21,0 12,7 25,7 22,4 21,0 4 2 8 5 NNE 1017,3 20 53 0,0
16.07.2019 09:00:00 18,0 11,8 19,0 22,6 21,1 3 2 7 4 N 1017,5 20 58 0,0
16.07.2019 08:00:00 14,6 11,4 9,1 22,8 21,0 2 1 5 3 NW 1017,5 20 60 0,0
16.07.2019 07:00:00 11,7 9,8 7,4 23,1 21,0 2 1 3 2 NNW 1017,8 20 12 0,0
16.07.2019 06:00:00 11,3 9,6 7,4 23,3 21,0 0 0 7 4 N 1017,7 20 0 0,0
16.07.2019 05:00:00 11,6 9,7 7,8 23,5 21,0 0 0 4 2 N 1017,6 20 0 0,0
16.07.2019 04:00:00 12,5 10,0 8,5 23,8 21,0 0 0 5 3 N 1017,6 20 0 0,0
16.07.2019 03:00:00 13,2 10,4 8,8 24,0 21,0 3 1 10 6 SE 1017,6 20 0 0,0
16.07.2019 02:00:00 13,4 10,4 9,9 24,3 21,0 4 2 10 5 SSE 1017,8 20 0 0,0
16.07.2019 01:00:00 14,9 10,7 10,5 24,5 21,0 5 3 9 5 SE 1017,7 20 0 0,0
16.07.2019 00:00:00 16,2 11,4 11,3 24,7 21,0 0 0 7 4 N 1017,3 20 0 0,0
15.07.2019 23:00:00 20,2 10,0 12,9 24,9 21,0 4 2 10 5 WNW 1016,6 20 0 0,0
15.07.2019 22:00:00 21,8 10,3 16,2 24,9 21,0 5 3 18 10 NW 1015,9 20 0 0,0
15.07.2019 21:00:00 23,9 10,6 21,8 24,9 21,0 8 4 25 13 NW 1015,3 20 55 0,0
15.07.2019 20:00:00 26,0 10,6 27,9 24,8 21,0 11 6 27 15 NNW 1014,8 20 60 0,0
15.07.2019 19:00:00 26,6 11,1 29,3 24,6 21,0 13 7 29 15 NNW 1014,4 20 60 0,0
15.07.2019 18:00:00 26,8 10,1 37,5 24,2 21,0 16 9 32 17 NNW 1014,3 20 60 0,0
15.07.2019 17:00:00 27,2 10,8 40,6 23,9 21,0 16 8 34 19 NNW 1014,1 20 60 0,0

tt = Température de l'air
td = dewpoint
tt 5cm = Température de l'air 5cm
tt -20cm = Température de l'air -20cm
tt -100cm = Température de l'air -100cm
ff = Vitesse du vent
fx = gusts
dd = Direction du vent
ppp = reduced air pressure
vv = visibility
sd = Ensoleillement
rr = Quantités de précipitations

stations d'obs. à proximité